2024/01/17 00:00:00,32.1,-4.4
2024/01/17 00:10:00,32.1,-4.2
2024/01/17 00:20:00,32.1,-4.4
2024/01/17 00:30:00,32.0,-5.1
2024/01/17 00:40:00,32.0,-4.8
2024/01/17 00:50:00,32.0,-4.8
2024/01/17 01:00:00,31.9,-4.9
2024/01/17 01:10:00,31.9,-5.3
2024/01/17 01:20:00,31.8,-5.3
2024/01/17 01:30:00,31.8,-5.2
2024/01/17 01:40:00,31.8,-5.1
2024/01/17 01:50:00,31.8,-5.1
2024/01/17 02:00:00,31.7,-5.1
2024/01/17 02:10:00,31.7,-5.3
2024/01/17 02:20:00,31.7,-5.1
2024/01/17 02:30:00,31.6,-4.5
2024/01/17 02:40:00,31.6,-5.0
2024/01/17 02:50:00,31.5,-4.5
2024/01/17 03:00:00,31.5,-4.1
2024/01/17 03:10:00,31.5,-3.8
2024/01/17 03:20:00,31.5,-3.8
2024/01/17 03:30:00,31.5,-3.5
2024/01/17 03:40:00,31.4,-3.4
2024/01/17 03:50:00,31.4,-3.4
2024/01/17 04:00:00,31.3,-3.1
2024/01/17 04:10:00,31.3,-3.2
2024/01/17 04:20:00,31.3,-3.4
2024/01/17 04:30:00,31.3,-3.4
2024/01/17 04:40:00,31.2,-3.5
2024/01/17 04:50:00,31.2,-3.2
2024/01/17 05:00:00,31.2,-3.1
2024/01/17 05:10:00,31.1,-3.0
2024/01/17 05:20:00,31.0,-3.1
2024/01/17 05:30:00,31.0,-3.0
2024/01/17 05:40:00,30.9,-2.8
2024/01/17 05:50:00,30.9,-2.9
2024/01/17 06:00:00,30.9,-2.7
2024/01/17 06:10:00,30.8,-2.3
2024/01/17 06:20:00,30.8,-2.7
2024/01/17 06:30:00,30.8,-2.4
2024/01/17 06:40:00,30.8,-2.0
2024/01/17 06:50:00,30.7,-2.1
2024/01/17 07:00:00,30.7,-2.0
2024/01/17 07:10:00,30.7,-1.8
2024/01/17 07:20:00,30.7,-1.9
2024/01/17 07:30:00,30.6,-1.9
2024/01/17 07:40:00,30.5,-1.5
2024/01/17 07:50:00,30.5,-1.7
2024/01/17 08:00:00,30.5,-1.5
2024/01/17 08:10:00,30.5,-1.3
2024/01/17 08:20:00,30.5,-1.1
2024/01/17 08:30:00,30.4,-0.9
2024/01/17 08:40:00,30.4,-0.7
2024/01/17 08:50:00,30.4,-0.7
2024/01/17 09:00:00,30.4, 1.3
2024/01/17 09:10:00,30.3, 3.8
2024/01/17 09:20:00,30.5, 7.4
2024/01/17 09:30:00,30.6, 7.5
2024/01/17 09:40:00,30.6, 5.4
2024/01/17 09:50:00,30.4, 6.8
2024/01/17 10:00:00,30.5, 6.4
2024/01/17 10:10:00,30.6, 7.2
2024/01/17 10:20:00,30.7, 9.2
2024/01/17 10:30:00,30.8,11.9
2024/01/17 10:40:00,30.5,12.3
2024/01/17 10:50:00,30.7,14.2
2024/01/17 11:00:00,30.6,14.4
2024/01/17 11:10:00,30.5,15.8
2024/01/17 11:20:00,30.7,13.2
2024/01/17 11:30:00,30.2,15.7
2024/01/17 11:40:00,30.0,14.6
2024/01/17 11:50:00,30.0,16.8
2024/01/17 12:00:00,29.9,16.5
2024/01/17 12:10:00,29.8,18.2
2024/01/17 12:20:00,29.6,18.5
2024/01/17 12:30:00,29.7,19.2
2024/01/17 12:40:00,29.8,20.7
2024/01/17 12:50:00,30.0,20.9
2024/01/17 13:00:00,30.1,21.9
2024/01/17 13:10:00,30.0,21.2
2024/01/17 13:20:00,29.9,21.8
2024/01/17 13:30:00,29.5,20.3
2024/01/17 13:40:00,29.2,20.9
2024/01/17 13:50:00,29.0,20.2
2024/01/17 14:00:00,28.6,19.7
2024/01/17 14:10:00,28.1,20.0
2024/01/17 14:20:00,27.8,20.3
2024/01/17 14:30:00,27.7,19.7
2024/01/17 14:40:00,27.0,19.2
2024/01/17 14:50:00,26.8,20.5
2024/01/17 15:00:00,26.7,17.8
2024/01/17 15:10:00,26.6,16.2
2024/01/17 15:20:00,26.2,11.3
2024/01/17 15:30:00,26.1, 9.9
2024/01/17 15:40:00,26.0, 8.7
2024/01/17 15:50:00,25.8, 7.1
2024/01/17 16:00:00,25.8, 6.2
2024/01/17 16:10:00,25.7, 5.9
2024/01/17 16:20:00,25.7, 5.4
2024/01/17 16:30:00,25.7, 5.2
2024/01/17 16:40:00,25.6, 5.0
2024/01/17 16:50:00,25.5, 4.4
2024/01/17 17:00:00,25.4, 4.0
2024/01/17 17:10:00,25.3, 3.8
2024/01/17 17:20:00,25.4, 3.8
2024/01/17 17:30:00,25.4, 3.4
2024/01/17 17:40:00,25.4, 3.5
2024/01/17 17:50:00,25.3, 3.2
2024/01/17 18:00:00,25.2, 3.5
2024/01/17 18:10:00,25.1, 3.3
2024/01/17 18:20:00,25.1, 3.4
2024/01/17 18:30:00,25.1, 3.8
2024/01/17 18:40:00,25.1, 3.7
2024/01/17 18:50:00,25.1, 3.6
2024/01/17 19:00:00,25.1, 3.8
2024/01/17 19:10:00,25.0, 3.9
2024/01/17 19:20:00,25.0, 4.3
2024/01/17 19:30:00,25.0, 4.0
2024/01/17 19:40:00,24.9, 4.0
2024/01/17 19:50:00,24.9, 4.0
2024/01/17 20:00:00,24.8, 4.2
2024/01/17 20:10:00,24.8, 3.9
2024/01/17 20:20:00,24.8, 4.0
2024/01/17 20:30:00,24.7, 4.1
2024/01/17 20:40:00,24.7, 4.1
2024/01/17 20:50:00,24.7, 4.0
2024/01/17 21:00:00,24.7, 3.6
2024/01/17 21:10:00,24.7, 4.0
2024/01/17 21:20:00,24.7, 4.0
2024/01/17 21:30:00,24.6, 4.0
2024/01/17 21:40:00,24.6, 3.9
2024/01/17 21:50:00,24.4, 3.8
2024/01/17 22:00:00,24.5, 4.0
2024/01/17 22:10:00,24.5, 3.7
2024/01/17 22:20:00,24.4, 3.9
2024/01/17 22:30:00,24.4, 3.7
2024/01/17 22:40:00,24.3, 3.3
2024/01/17 22:50:00,24.0, 3.4
2024/01/17 23:00:00,24.1, 3.2
2024/01/17 23:10:00,24.0, 3.1
2024/01/17 23:20:00,24.1, 3.1
2024/01/17 23:30:00,24.0, 3.0
2024/01/17 23:40:00,23.9, 3.2
2024/01/17 23:50:00,23.9, 3.5
